KBDL

Bradley International Airport

Airport
ICAO code
KBDL
IATA Code
BDL
Summary
ICAO Region
NAM
ICAO Territory
Location

Windsor Locks , Connecticut

Serving
Hartford
Elevation
173 ft
Coordinates
41° 55' 43" N , 72° 41' 2" W
KCC
Metar
KBDL 221051Z 33004KT 10SM BKN250 21/18 A3009 RMK AO2 SLP187 T02060178 $

Description

Bradley International Airport is a joint civil-military (ANG) public airport located in Windsor Locks, Connecticut, USA.

Airport map

Aerial View

SKYbrary Partners:

Safety knowledge contributed by: